This is the latest recevied weather packets stored in our database for station/object N5XJB. If no packets are shown the sender has not sent any weather packets the latest 10 day(s).
| Time | Temp. | Humidity | Pressure | Rain* | Wind** | Luminosity | Snow |
|---|---|---|---|---|---|---|---|
| 1777496765 | 32.78° C | 58% | 1010.7 hPa | 0 mm | - | 341 W/m² | - |
| 1777496462 | 32.22° C | 62% | 1010.7 hPa | 0 mm | - | 684 W/m² | - |
| 1777496159 | 31.67° C | 59% | 1010.7 hPa | 0 mm | - | 357 W/m² | - |
| 1777495855 | 32.78° C | 61% | 1011 hPa | 0 mm | - | 427 W/m² | - |
| 1777495551 | 32.22° C | 60% | 1010.7 hPa | 0 mm | - | 337 W/m² | - |
| 1777495247 | 32.78° C | 58% | 1011 hPa | 0 mm | - | 255 W/m² | - |
| 1777494945 | 32.78° C | 58% | 1010.7 hPa | 0 mm | - | 763 W/m² | - |
| 1777494642 | 32.22° C | 61% | 1011 hPa | 0 mm | - | 734 W/m² | - |
| 1777494339 | 32.22° C | 59% | 1011 hPa | 0 mm | - | 501 W/m² | - |
| 1777494035 | 31.67° C | 61% | 1011.4 hPa | 0 mm | - | 653 W/m² | - |
| 1777493733 | 31.67° C | 63% | 1011 hPa | 0 mm | - | 718 W/m² | - |
| 1777493432 | 31.11° C | 64% | 1011.4 hPa | 0 mm | - | 482 W/m² | - |
| 1777493127 | 31.11° C | 63% | 1011.4 hPa | 0 mm | - | 393 W/m² | - |
| 1777492824 | 30.56° C | 64% | 1011.4 hPa | 0 mm | - | 344 W/m² | - |
| 1777492520 | 31.67° C | 65% | 1011.4 hPa | 0 mm | - | 401 W/m² | - |
| 1777492216 | 31.67° C | 63% | 1011.4 hPa | 0 mm | - | 281 W/m² | - |
| 1777491914 | 31.11° C | 65% | 1011.7 hPa | 0 mm | - | 321 W/m² | - |
| 1777491610 | 30.56° C | 65% | 1012.1 hPa | 0 mm | - | 452 W/m² | - |
| 1777491308 | 31.11° C | 64% | 1011.7 hPa | 0 mm | - | 250 W/m² | - |
| 1777491004 | 30.56° C | 62% | 1011.4 hPa | 0 mm | - | 403 W/m² | - |
| 1777490699 | 31.67° C | 63% | 1011.7 hPa | 0 mm | - | 366 W/m² | - |
| 1777490396 | 31.67° C | 63% | 1011.4 hPa | 0 mm | - | 442 W/m² | - |
| 1777490093 | 32.22° C | 63% | 1011.7 hPa | 0 mm | - | 694 W/m² | - |
| 1777489790 | 31.67° C | 64% | 1011.7 hPa | 0 mm | - | 447 W/m² | - |
| 1777489488 | 30.56° C | 66% | 1012.1 hPa | 0 mm | - | 382 W/m² | - |
* Rain latest hour (hover to see other rain measurements)
** Current wind speed in m/s (hover to see current wind gust speed)